Location: Bosque County Jail
(31.9228°N, 97.6573°W)
Time: 03:21:50
(UTC+00:00)

Daily predictions for brighter satellites

Satellite Brightness Start Highest point End
(mag) Time Altitude Azimuth Time Altitude Azimuth Time Altitude Azimuth
Cosmos 2233 Rocket 4.2 01:41:19 10° N 01:47:39 86° W 01:53:58 10° S
Resurs 01 Rocket 2.9 01:46:54 10° SE 01:50:27 24° ENE 01:54:00 10° NNE
Cosmos 1602 4.0 01:51:05 10° NNW 01:54:38 62° W 01:58:08 10° S
Cosmos 2237 Rocket 3.6 01:50:34 10° SW 01:55:59 45° WNW 02:01:26 10° N
SL-24 R/B - RUBIN 2 4.4 01:50:54 10° SSW 01:56:41 85° ESE 02:03:10 10° NNE
Cosmos 1782 2.8 01:56:06 10° S 01:59:46 51° E 02:03:28 10° NNE
BREEZE-M DEB (TANK) 4.3 01:57:58 10° W 02:00:49 38° NNW 02:05:07 10° NE
Meteor 2-14 Rocket 4.4 01:58:47 10° S 02:04:55 79° E 02:11:04 10° N
OAO 2 Rocket 3.7 01:59:45 10° WNW 02:05:01 67° N 02:10:15 10° E
H-2A R/B 0.3 02:03:35 10° SW 02:05:33 29° S 02:06:29 16° ESE
Okean O Rocket 2.6 02:02:09 10° SE 02:06:00 30° ENE 02:09:52 10° NNE
Cosmos-2242 2.9 02:02:51 10° S 02:07:02 80° E 02:11:15 10° N
USA 290 4.4 02:11:25 10° NE 02:13:03 13° ENE 02:14:21 11° E
Aureole 2 3.9 02:13:44 10° NNW 02:16:35 69° ENE 02:19:09 13° SSE
Feng Yun 1-1 Rocket 4.5 02:13:54 10° SSE 02:19:42 65° ENE 02:25:34 10° N
Resurs 1-3 4.4 02:15:48 10° S 02:20:00 50° W 02:24:13 10° NNW
Cosmos 972 4.5 02:17:44 10° SSW 02:22:40 81° WNW 02:27:35 10° NNE
DELTA 2 DEB (DPAF) 4.0 02:19:27 10° NNE 02:23:41 90° SSE 02:27:54 10° SSW
SL-8 R/B 4.3 02:21:04 10° WSW 02:25:45 59° NW 02:30:27 10° NE
Cosmos 1943 Rocket 2.2 02:21:05 10° NNW 02:26:45 76° ENE 02:31:46 13° SSE
SPOT 1/Viking Rocket 4.0 02:22:40 10° S 02:27:47 63° W 02:32:53 10° NNW
FALCON 9 R/B 2.7 02:33:02 10° W 02:36:56 70° N 02:49:03 10° E
Cosmos 192 4.4 02:32:33 10° NNW 02:37:29 81° WSW 02:41:49 13° SSE
Cosmos 2221 2.9 02:36:34 17° SSE 02:39:28 42° E 02:43:33 10° NNE
CZ-4B R/B 3.4 02:36:06 10° S 02:41:27 67° WSW 02:46:45 10° NNW
ATLAS 3B R/B 3.4 02:36:29 10° NNW 02:44:04 49° NE 02:48:59 22° ESE
USA 186 3.2 02:42:44 10° SSW 02:45:37 35° W 02:48:33 10° NNW
Okean-O 3.1 02:43:48 25° SE 02:45:52 43° ENE 02:50:02 10° N
Centaur D AC-29 2.5 02:42:26 10° SW 02:46:18 39° SSE 02:57:18 10° E
Cosmos 2278 Rocket 3.5 02:41:38 10° NW 02:46:48 37° WSW 02:51:57 10° S
Cosmos 1464 Rocket 4.0 02:41:23 10° N 02:47:40 87° E 02:53:29 12° S
MOS 1-B 4.5 02:42:23 10° S 02:48:09 75° WSW 02:53:55 10° NNW
ATLAS 5 CENTAUR R/B 4.1 02:43:43 10° WNW 02:48:34 27° WSW 02:54:08 10° S
CZ-4C R/B 3.2 02:46:11 10° NNE 02:50:01 69° E 02:53:10 16° S
CARTOSAT-1 3.7 02:46:38 14° S 02:50:13 69° WSW 02:54:28 10° NNW
Meteor 1-26 Rocket 4.4 02:50:35 10° S 02:56:35 84° W 03:02:40 10° N
Cosmos 921 Rocket 2.9 02:53:25 10° S 02:57:51 83° ESE 03:02:21 10° NNE
OAO 3 Copernicus 4.2 02:55:37 10° WNW 03:00:40 87° SSW 03:02:55 34° ESE
Cosmos 1371 Rocket 4.5 02:55:37 10° N 03:00:45 46° ENE 03:02:41 32° ESE
Cosmos 1378 4.4 03:00:35 10° SSW 03:03:36 35° W 03:06:39 10° NNW
Lacrosse 5 2.1 02:58:40 10° NNW 03:03:42 57° NE 03:05:39 34° ESE
MOS 1 4.3 03:01:42 29° SE 03:04:38 63° ENE 03:10:13 10° N
Cosmos 1420 Rocket 4.0 03:03:54 10° N 03:09:12 68° ENE 03:11:13 37° SE
OAO 1 4.4 03:04:40 10° WSW 03:10:08 72° SSE 03:13:34 23° E
Terra 2.9 03:11:35 26° E 03:11:59 26° ENE 03:15:53 10° NNE
SL-16 R/B 3.9 03:10:34 10° SW 03:15:36 33° WNW 03:20:42 10° N
Cosmos 1603 4.0 03:17:42 40° ESE 03:18:15 41° ESE 03:23:32 10° NE
IRS-1A Rocket 4.5 03:16:28 38° SE 03:18:17 54° ENE 03:23:42 10° N
USA 308 4.0 03:16:51 10° WNW 03:19:18 22° SW 03:19:18 22° SW
Cosmos 1743 3.2 03:16:14 10° N 03:19:07 41° NE 03:19:07 41° NE
Meteor 2-6 Rocket 4.1 03:16:48 27° S 03:19:59 77° E 03:25:31 10° N
Spot 2 Rocket 4.4 03:20:07 29° E 03:20:33 30° ENE 03:24:54 10° N
Cosmos 1634 Rocket 4.2 03:15:31 10° N 03:21:37 53° E 03:23:26 40° SE
GEOS 3 Rocket 3.4 03:16:35 10° NE 03:21:41 67° ESE 03:26:04 14° SSW
SPOT 5 2.7 03:21:11 52° SE 03:22:13 72° ENE 03:26:43 10° N
SeaSat 1 4.4 03:20:32 10° SSW 03:24:16 22° WSW 03:28:00 10° WNW
Resurs 01 Rocket 3.7 03:23:14 10° SSW 03:26:45 23° W 03:30:15 10° NW
NOSS 3-1 (A) 4.3 03:22:30 10° NNW 03:30:34 80° WSW 03:35:18 33° SSE
Gbstr 26 Del rocket 4.4 03:26:16 10° WNW 03:31:28 35° SW 03:32:46 30° SSW
Cosmos 2369 Rocket 2.4 03:28:13 10° N 03:33:40 51° ENE 03:34:31 47° E
Cosmos 2034 Rocket 4.5 03:27:35 10° NNW 03:33:40 57° W 03:37:42 22° SSW
Cosmos 1726 4.4 03:36:14 10° NNE 03:36:42 13° NNE 03:36:42 13° NNE
Cosmos 1842 Rocket 3.4 03:40:11 81° SSW 03:40:24 88° W 03:44:51 10° N
Okean 3 Rocket 4.1 03:36:19 10° N 03:39:52 45° NE 03:39:52 45° NE
Okean O Rocket 4.0 03:39:10 10° SW 03:42:14 18° W 03:45:19 10° NW
Ariane Rocket 3.3 03:43:07 50° ENE 03:43:09 50° ENE 03:48:03 10° N
BREEZE-M DEB (TANK) 4.5 03:18:26 10° SW 03:44:58 87° NW 03:50:01 10° NE
USA 229 DEB 4.4 03:38:33 10° NNW 03:46:02 53° ENE 03:48:32 40° ESE
USA 229 4.4 03:38:39 10° NNW 03:46:08 52° ENE 03:48:38 40° ESE
ARGOS Delta rocket 3.8 03:46:25 73° SE 03:46:53 83° E 03:51:50 10° N
OAO 2 Rocket 3.5 03:44:36 10° WNW 03:49:36 61° SW 03:49:36 61° SW
Meteor 1-27 Rocket 4.2 03:51:15 43° ENE 03:51:15 43° ENE 03:55:43 10° NNE
Cosmos 1656 Rocket 3.5 03:45:08 10° NNW 03:50:37 82° WSW 03:51:20 68° S
Cosmos 468 4.5 03:54:01 59° SW 03:54:59 78° WNW 04:00:12 10° NNE
Cosmos 1943 3.9 03:49:51 10° SW 03:55:19 53° WNW 04:00:53 10° N
Cosmos 2056 Rocket 4.1 03:51:33 10° NNW 03:56:42 49° WSW 03:57:41 43° SW
Aureole 3 Rocket 4.4 03:53:48 10° NNW 03:58:10 44° W 04:00:10 32° SW
Cosmos 1452 Rocket 4.2 03:55:41 10° N 04:00:07 42° NE 04:00:07 42° NE
Cosmos 2142 Rocket 4.5 03:56:56 10° N 04:03:15 66° E 04:03:39 65° ESE
Cosmos 44 4.1 04:04:18 10° NW 04:08:06 39° W 04:08:06 39° W
ERS-1 Rocket 3.5 04:15:22 50° W 04:15:22 50° W 04:20:15 10° NNW
USA 59 Rocket 2.8 04:29:36 10° NNE 04:30:55 12° NE 04:30:55 12° NE
MOS 1 Rocket 4.2 04:34:16 51° WNW 04:34:16 51° WNW 04:38:32 10° NNW
ATLAS 3B R/B 4.0 04:27:52 10° NW 04:34:30 31° WSW 04:36:15 28° SW
USA 281 3.1 04:36:16 78° ENE 04:36:16 78° ENE 04:42:49 10° NNW
Lacrosse 5 4.2 04:43:02 10° WNW 04:44:52 15° W 04:44:52 15° W
Terra 3.7 04:50:17 23° W 04:50:17 23° W 04:53:14 10° NW
Meteor 1-11 Rocket 4.4 04:47:59 10° NNW 04:52:46 49° WNW 04:52:46 49° WNW
Nadezhda 4 Rocket 4.4 04:54:10 55° WNW 04:54:10 55° WNW 05:00:07 10° N
Chandra Rocket (1) 3.9 04:51:30 10° W 05:08:13 63° SW 05:08:13 63° SW
CZ-3 Stage 3 3.8 04:41:47 10° WSW 05:15:35 68° SSE 05:16:07 68° SSE
Cosmos 2369 Rocket 4.4 05:13:48 10° WNW 05:16:18 16° W 05:16:18 16° W
USA 267 3.7 05:47:11 10° NE 05:52:17 55° N 05:52:17 55° N
Cosmos 1697 Rocket 4.4 06:07:41 10° N 06:10:50 28° NNE 06:10:50 28° NNE
Cosmos 1980 Rocket 4.3 06:15:48 10° NNE 06:19:10 19° NE 06:19:10 19° NE
USA 59 Rocket 2.8 06:16:32 10° NW 06:17:27 17° NW 06:17:27 17° NW
Cosmos 2082 Rocket 3.7 06:54:17 33° NNE 06:54:17 33° NNE 06:57:21 10° NNE
Resurs 1-4 Rocket 4.3 07:18:08 10° NE 07:20:14 17° ENE 07:20:14 17° ENE
Cosmos 1745 Rocket 4.4 07:47:13 58° NE 07:47:13 58° NE 07:52:23 10° NNE
NOSS 3-4 (A) 4.0 07:50:05 10° NNW 07:56:34 69° WNW 07:56:34 69° WNW
NOSS 3-4 (C) 4.0 07:50:11 10° NNW 07:56:43 70° WNW 07:56:43 70° WNW
ATLAS CENTAUR R/B 3.9 07:47:44 10° NW 07:59:39 67° WSW 07:59:39 67° WSW
Cosmos 1980 Rocket 3.8 07:58:29 10° NNW 08:00:53 25° NW 08:00:53 25° NW
SJ 16-02 3.4 08:06:53 24° NE 08:06:53 24° NE 08:08:57 10° NE
USA 234 3.3 08:05:25 54° ESE 08:06:57 73° NE 08:13:30 10° NW
ADEOS II 3.4 08:03:32 10° NE 08:07:43 32° E 08:07:43 32° E
IDEFIX/ARIANE 42P 3.2 08:07:29 10° NNE 08:11:29 53° NNE 08:11:29 53° NNE
Nadezhda 1 Rocket 4.0 08:10:41 10° N 08:16:37 78° N 08:16:37 78° N
CZ-2C R/B 3.4 08:26:41 10° NNE 08:32:27 67° E 08:32:29 67° ESE
SL-16 R/B 2.6 08:29:20 10° NNW 08:34:57 60° ENE 08:36:03 50° ESE
Cosmos 968 Rocket 4.0 08:41:59 49° NNW 08:41:59 49° NNW 08:46:04 10° N
AQUA 4.2 08:39:34 10° NNE 08:43:54 57° E 08:43:54 57° E
CZ-2D R/B 2.3 08:42:48 10° N 08:47:51 61° NW 08:47:51 61° NW
Cosmos 1709 Rocket 4.2 08:48:17 54° W 08:48:17 54° W 08:54:25 10° N
CRYOSAT 2 4.5 08:43:21 10° N 08:47:46 73° NNE 08:47:46 73° NNE
BREEZE-M R/B 4.2 08:47:03 38° WNW 08:48:34 47° NNW 09:00:32 10° NE
SL-16 R/B 3.4 08:46:58 13° SE 08:52:11 47° ENE 08:58:08 10° N
Meteor 1-24 Rocket 3.9 08:51:31 61° SSE 08:52:32 77° E 08:58:33 10° N
OAO 3 Rocket 3.5 08:54:36 60° NNW 08:54:59 63° N 08:59:50 10° E
Cosmos 2237 4.0 08:49:38 10° NNW 08:55:22 77° WSW 08:55:27 77° WSW
Cosmos 2360 Rocket 3.3 08:51:13 10° N 08:56:34 42° ENE 09:01:53 10° SE
Cosmos 841 Rocket 4.4 08:52:55 10° NNW 08:56:15 35° NW 08:56:15 35° NW
Resurs 1-4 Rocket 2.7 08:56:42 10° N 09:01:18 41° WNW 09:01:18 41° WNW
Cosmos 2181 Rocket 4.3 08:55:23 10° N 09:01:40 65° E 09:04:59 29° SSE
Cosmos 1066 4.5 09:04:46 71° SW 09:05:21 81° W 09:10:50 10° N
SL-4 R/B 2.5 09:06:31 58° NNW 09:06:31 58° NNW 09:10:28 10° NE
Tiangong 0.1 09:08:06 25° NE 09:08:06 25° NE 09:09:32 10° ENE
FENGYUN 3A 3.7 09:07:45 10° N 09:13:01 60° WNW 09:13:35 57° WSW
CZ-2C R/B 2.8 09:15:09 50° W 09:15:09 50° W 09:19:49 10° NNW
IRAS Rocket 4.1 09:10:55 10° NNE 09:16:26 89° WNW 09:17:50 52° SSW
Cosmos 2278 4.4 09:11:37 10° NW 09:15:52 36° W 09:15:52 36° W
Cosmos 2098 Rocket 3.8 09:12:36 10° N 09:18:14 89° W 09:21:18 33° S
SL-8 R/B 3.7 09:15:15 10° NW 09:20:02 78° NE 09:24:49 10° SE
Cosmos 1674 Rocket 3.5 09:20:36 63° SSE 09:21:16 80° E 09:25:42 10° N
SL-24 R/B 4.4 09:21:51 59° WSW 09:22:14 61° W 09:27:00 10° NNW
Lacrosse 5 rocket 1.4 09:20:41 10° NNW 09:24:38 67° NE 09:28:23 10° SE
Cosmos 1814 Rocket 3.9 09:21:43 10° NNW 09:26:58 84° WSW 09:29:48 28° S
Okean 2 Rocket 3.8 09:22:54 10° N 09:27:11 51° E 09:30:06 19° SSE
Cosmos 2333 Rocket 2.3 09:24:52 10° NNW 09:30:37 76° ENE 09:36:21 10° SSE
Cosmos 1295 Rocket 4.3 09:30:42 33° S 09:33:39 84° W 09:39:45 10° N
Meteor 2-5 Rocket 4.2 09:32:54 39° WSW 09:34:09 44° WNW 09:39:48 10° N
Cosmos 405 Rocket 3.8 09:30:48 10° N 09:34:14 41° E 09:36:44 17° SE
Cosmos 2322 Rocket 2.1 09:28:43 10° NNW 09:34:19 65° WSW 09:37:44 24° S
Cosmos 2297 Rocket 4.2 09:30:57 10° SSE 09:35:16 23° E 09:39:37 10° NE
ATLAS CENTAUR R/B 1.4 09:36:07 48° SE 09:36:27 50° ESE 09:39:50 10° NE
Cosmos 1378 Rocket 3.7 09:38:01 48° W 09:38:18 49° W 09:42:28 10° N
Cosmos 1486 Rocket 4.2 09:36:16 31° S 09:38:46 69° ESE 09:43:56 10° NNE
ALOS 2.7 09:38:32 10° N 09:42:55 44° WNW 09:43:48 39° WSW
SJ 16-02 3.3 09:43:39 15° WNW 09:43:39 15° WNW 09:45:58 10° NNW
ADEOS II 3.3 09:43:26 10° NNW 09:47:35 24° WNW 09:48:35 23° W
Cosmos 2074 Rocket 4.2 09:47:33 31° SW 09:50:15 51° W 09:56:17 10° N
Meteor 1-28 Rocket 4.4 09:51:23 26° WNW 09:51:23 26° WNW 09:53:34 10° NW
Okean 1 Rocket 3.4 09:48:43 10° N 09:53:00 62° E 09:57:15 10° SSE
UNK 3.6 09:51:37 20° S 09:54:48 69° WSW 09:59:26 10° NNW
COSMOS 2455 4.0 09:50:48 11° S 09:56:10 39° ESE 10:01:41 10° NE
METEOR-M 4.1 09:53:15 10° N 09:58:36 76° WNW 10:02:09 22° SSW
CZ-2C R/B 2.4 09:54:43 10° NNE 09:59:25 73° ESE 10:02:58 17° S
IRS-1D 3.9 09:57:17 10° NNE 10:02:35 65° ESE 10:07:45 10° S
Envisat 3.0 09:58:16 10° N 10:03:18 67° WNW 10:06:34 22° SSW
CZ-4C R/B 3.7 10:05:16 10° SSE 10:08:22 21° ESE 10:11:50 10° ENE
Delta 2 Rocket 4.1 10:08:34 23° WSW 10:12:09 49° S 10:17:56 10° E
RESURS DK-1 2.5 10:09:00 10° NNW 10:12:56 49° WSW 10:16:50 10° S
Atlas Centaur 2 2.3 10:14:56 21° SSW 10:16:32 29° SSE 10:19:43 10° E
SL-16 R/B 3.9 10:15:39 10° WNW 10:17:48 14° W 10:17:48 14° W
Cosmos 2322 4.2 10:15:23 10° NNW 10:21:02 63° ENE 10:26:37 10° SSE
Cosmos 1825 3.4 10:20:53 19° W 10:21:25 20° WNW 10:23:59 10° NNW
Cosmos 1975 Rocket 3.2 10:18:15 10° S 10:22:31 73° E 10:26:48 10° N
Nadezhda 3 Rocket 4.2 10:20:45 10° NNW 10:26:55 55° W 10:33:00 10° SSW
Cosmos 1892 4.4 10:29:09 13° W 10:29:41 14° WNW 10:31:31 10° NW
Thor Agena Rocket 3.6 10:25:27 10° N 10:30:38 68° WNW 10:35:51 10° SSW
Cosmos 2219 Rocket 2.3 10:25:55 10° NNW 10:31:27 56° WSW 10:36:58 10° S
YAOGAN 6 3.0 10:29:24 10° N 10:32:29 38° WNW 10:34:44 16° SW
SL-24 DEB 4.3 10:29:12 10° N 10:33:38 56° W 10:38:02 10° SSW
SL-16 R/B 3.7 10:32:02 13° SW 10:35:52 22° W 10:40:36 10° NW
Cosmos 2341 Rocket 4.0 10:30:09 10° S 10:36:25 77° W 10:42:40 10° N
OAO 3 Rocket 3.2 10:33:32 10° WNW 10:38:24 68° SSW 10:43:13 10° ESE
Cosmos 2360 Rocket 3.4 10:36:05 10° NW 10:40:11 21° W 10:44:15 10° SSW
DELTA 2 R/B (1) 3.6 10:35:05 10° WNW 10:40:39 87° NNE 10:46:13 10° ESE
COSMOS 2428 3.0 10:35:43 10° NNW 10:41:24 76° ENE 10:47:05 10° SSE
Cosmos 2366 rocket 4.1 10:36:23 10° S 10:42:43 85° W 10:49:06 10° N
Tiangong 0.1 10:41:03 10° WNW 10:43:20 19° NNW 10:45:37 10° NE
ATLAS 2AS CENTAUR R/B 2.6 10:38:51 10° NNW 10:45:33 76° WSW 10:52:05 10° SSE
Cosmos 1025 Rocket 4.2 10:42:30 12° SW 10:45:46 26° WNW 10:49:27 10° NNW
Geosat 4.1 10:41:20 10° S 10:46:10 51° WSW 10:51:02 10° NW
ASTEX 1 3.8 10:42:22 10° SSW 10:47:02 41° W 10:51:40 10° NNW
H-2A R/B 2.3 10:45:22 10° NNE 10:50:49 81° ESE 10:56:13 10° S
In-Cosmos 22 Rocket 4.2 10:46:18 10° SSW 10:51:39 65° W 10:57:12 10° N
Cosmos 1455 Rocket 3.1 10:49:46 10° NNW 10:54:06 62° W 10:58:25 10° S
Cosmos 2237 Rocket 4.1 10:49:44 10° N 10:54:55 35° ENE 11:00:02 10° SE
H-2A R/B 4.3 10:52:40 10° NE 10:55:29 29° E 10:58:17 10° SSE
Cosmos 2227 Rocket 2.7 10:49:58 10° S 10:55:33 64° ESE 11:01:10 10° NNE
Cosmos 371 Rocket 4.5 10:51:38 10° WSW 10:55:33 25° WNW 10:59:30 10° N
ARIANE 5 R/B 4.5 10:52:35 10° NE 10:56:56 29° E 11:01:13 10° SSE
DNEPR-1 R/B 4.5 10:55:08 10° NNW 11:01:23 74° ENE 11:06:21 10° SE
Cosmos 1606 3.8 11:01:19 10° N 11:04:43 45° E 11:08:07 10° SSE
